Location: Julian California
(33.0790°N, 116.6010°W)
Time: 06:13:01
(UTC-07:00)

Abrixas - Pass Details

Date: 19 May 2017
Orbit: 320 x 326 km, 48.4° (Epoch: 24 May)

Event Time Altitude Azimuth Distance (km) Brightness Sun altitude
Rises 21:17:46 0° 315° (NW) 2,053 8.0 -17.8°
Reaches altitude 10° 21:19:48 10° 322° (NW) 1,220 6.3 -18.1°
Enters shadow 21:22:13 42° 22° (NNE) 464 3.0 -18.5°
